Погода в Бурхале

Россия / Магаданская область     62°38′49″N   149°07′11″E
темп.,
°C
ветер,
м/с
пор.,
м/с
влажн.,
%
обл.,
%
осадки,
мм/ч
давл.,
гПа
погр.,
м
18 октября, пн
пн1823:00−20ссв339996 0.1 102336
02:00−20с349880 0.1 102156
05:00−20ссв3399100 0.3 101937
08:00−20с4598100 0.2 101870
11:00−18с4894100 0.3 1016455
14:00−17с5986100 0.1 1013715
17:00−19с469486 0.1 1014106
20:00−22ссз449592 0.0 101534
19 октября, вт
вт1923:00−23ссз339787 0.1 101525
02:00−25ссз339655 0.0 101512
05:00−25ссз329585 0.0 101612
08:00−26сз229571 0.0 10169
11:00−21ссз239051 0.0 101473
14:00−18ссз248511 0.0 1013190
17:00−24сз22935 0.0 10159
20:00−28зсз219553 0.0 10189
20 октября, ср
ср2023:00−29зсз11969 0.0 10199
02:00−29зсз21968 0.0 10209
05:00−30зсз21989 0.0 10219
08:00−31зсз219910 0.0 10229
11:00−24зсз21915 0.0 101945
14:00−21зсз11841 0.0 101782
17:00−25зсз21925 0.0 10189
20:00−29зсз21975 0.0 10209
21 октября, чт
чт2123:00−30зсз219711 0.0 10209
02:00−31зсз219816 0.0 10199
05:00−31зсз229933 0.0 10199
08:00−31зсз229833 0.0 10199
11:00−24зсз11905 0.0 101642
14:00−20зсз11835 0.0 101461
17:00−25зсз11915 0.0 10159
20:00−28зсз21965 0.0 10189
22 октября, пт
пт2223:00−29зсз219710 0.0 10179
02:00−29зсз219714 0.0 10179
05:00−30зсз219814 0.0 10169
08:00−29зсз219814 0.0 10159
11:00−22зсз11905 0.0 101242
14:00−19з11855 0.0 100966
17:00−23зсз11945 0.0 10109
20:00−26зсз119922 0.0 10129